This demonstration page uses our WeatherBlox Daily Observations layout. Learn more.

Left ArrowRight Arrow

39.01783, -85.05884

Hourly Observations for March 13, 2020

Temp ( °F °C ) Dew Point ( °F °C ) Humidity (%) Winds ( mph kmh ) Pressure ( in mb ) Visibility ( mi km ) Precip ( " mm )
12:40 am 00:40 Cloudy 62 16.7 58 14.4 86 86 WSW 13 20 29.68 1005 10 16 0.00 0.00
12:52 am 00:52 Cloudy 62 16.7 58 14.4 86 86 WSW 13 20 29.68 1005 10 16 0.00 0.00
1:44 am 01:44 Cloudy with Light Rain 60 15.6 56 13.3 86 86 WNW 20 31 29.72 1006 7 11 0.00 0.00
1:52 am 01:52 Cloudy 60 15.6 56 13.3 86 86 WNW 18 30 29.71 1006 10 16 0.00 0.00
2:52 am 02:52 Cloudy 58 14.4 52 11.1 81 81 WNW 18 30 29.76 1008 10 16 0.00 0.00
3:09 am 03:09 Cloudy 58 14.4 52 11.1 81 81 WNW 16 26 29.79 1009 10 16 0.00 0.00
3:36 am 03:36 Mostly Cloudy 56 13.3 51 10.6 84 84 W 13 20 29.81 1009 10 16 0.00 0.00
3:52 am 03:52 Cloudy 56 13.3 51 10.6 84 84 WNW 15 24 29.80 1009 10 16 0.00 0.00
4:36 am 04:36 Cloudy 55 12.8 50 10 83 83 W 13 20 29.85 1011 10 16 0.00 0.00
4:52 am 04:52 Cloudy 56 13.3 49 9.4 77 77 WNW 18 30 29.85 1011 10 16 0.00 0.00
5:18 am 05:18 Cloudy 54 12.2 47 8.3 77 77 WNW 25 41 29.89 1012 10 16 0.00 0.00
5:37 am 05:37 Mostly Cloudy 51 10.6 44 6.7 77 77 WNW 22 35 29.93 1013 10 16 0.00 0.00
5:52 am 05:52 Partly Cloudy 50 10 43 6.1 77 77 WNW 21 33 29.93 1014 10 16 0.00 0.00
6:52 am 06:52 Partly Cloudy 45 7.2 35 1.7 68 68 NW 21 33 30.01 1016 10 16 0.00 0.00
7:52 am 07:52 Partly Cloudy 43 6.1 36 2.2 76 76 WNW 13 20 30.05 1018 10 16 0.00 0.00
8:52 am 08:52 Partly Cloudy 43 6.1 34 1.1 71 71 WNW 15 24 30.10 1019 10 16 0.00 0.00
9:52 am 09:52 Partly Cloudy 45 7.2 36 2.2 71 71 WNW 16 26 30.13 1020 10 16 0.00 0.00
10:52 am 10:52 Partly Cloudy 47 8.3 32 0 56 56 WNW 20 31 30.17 1022 10 16 0.00 0.00
11:52 am 11:52 Partly Cloudy 49 9.4 30 -1.1 48 48 WNW 13 20 30.19 1022 10 16 0.00 0.00
12:52 pm 12:52 Mostly Cloudy 50 10 27 -2.8 41 41 NW 14 22 30.22 1023 10 16 0.00 0.00
1:52 pm 13:52 Cloudy 50 10 25 -3.9 38 38 NW 16 26 30.24 1024 10 16 0.00 0.00
2:52 pm 14:52 Cloudy 50 10 24 -4.4 36 36 WNW 16 26 30.24 1024 10 16 0.00 0.00
3:52 pm 15:52 Mostly Cloudy 51 10.6 25 -3.9 36 36 W 13 20 30.24 1024 10 16 0.00 0.00
4:52 pm 16:52 Mostly Cloudy 50 10 23 -5 35 35 WNW 13 20 30.25 1024 10 16 0.00 0.00
5:52 pm 17:52 Mostly Cloudy 50 10 22 -5.6 33 33 NW 14 22 30.29 1026 10 16 0.00 0.00
6:52 pm 18:52 Mostly Cloudy 49 9.4 21 -6.1 33 33 NW 10 17 30.30 1026 10 16 0.00 0.00
7:52 pm 19:52 Mostly Cloudy 47 8.3 22 -5.6 37 37 NW 10 17 30.32 1027 10 16 0.00 0.00
8:52 pm 20:52 Cloudy 45 7.2 24 -4.4 44 44 WNW 7 11 30.35 1028 10 16 0.00 0.00
9:52 pm 21:52 Cloudy 42 5.6 24 -4.4 49 49 W 5 7 30.36 1028 10 16 0.00 0.00
10:52 pm 22:52 Cloudy 41 5 25 -3.9 53 53 W 3 6 30.37 1029 10 16 0.00 0.00
11:52 pm 23:52 Cloudy 40 4.4 25 -3.9 55 55 W 7 11 30.40 1030 10 16 0.00 0.00

Powered by AerisWeather